Location: Saint Louis
(38.6272°N, 90.1978°W)
Time: 07:38:19
(UTC-05:00)

ISS - Pass Details

Date: 24 February 2013
Orbit: 402 x 404 km, 51.6° (Epoch: 30 May)

Event Time Altitude Azimuth Distance (km) Brightness Sun altitude
Rises 19:29:17 0° 304° (NW) 2,340 1.6 -20.3°
Reaches altitude 10° 19:31:23 10° 300° (WNW) 1,482 0.5 -20.8°
Maximum altitude 19:34:38 51° 223° (SW) 528 -2.6 -21.4°
Enters shadow 19:34:45 51° 214° (SSW) 531 -2.7 -21.4°
